Weather in Haivoron

Ukraine / Kirovohrad Region     48°20′26″N   29°51′59″E
В апреле 2022 года жителям России запретили посещать сайт meteo.paraplan.net по решению Генеральной прокуратуры. Аудитория сайта уменьшилась в 10 раз. Владельцы сайта не видят смысла в поддержке погодного сервера в таких условиях. Сайт будет закрыт в октябре.
temp.,
°C
wind,
m/s
gust,
m/s
humid.,
%
clouds,
%
prec.,
mm/h
press.,
hPa
HPBL,
m
25 september, sun
sun2500:00+8w35755 0.0 101998
03:00+7w37765 0.0 1019146
06:00+6w35826 0.0 101997
09:00+10w346499 0.0 1019211
12:00+16wsw4543100 0.0 10181451
15:00+17wsw353910 0.0 10171782
18:00+16w22475 0.0 101617
21:00+13nnw1155100 0.0 101610
26 september, mon
mon2600:00+13se115598 0.0 101511
03:00+12se2256100 0.0 101428
06:00+12sse2352100 0.0 101371
09:00+14sse3559100 0.0 1013223
12:00+19s56515 0.0 1011897
15:00+22ssw453499 0.0 10091522
18:00+20wsw2243100 0.0 100924
21:00+17ene1148100 0.0 100811
27 september, tue
tue2700:00+15se2255100 0.0 100830
03:00+14se3582100 0.0 1006127
06:00+14sse3788100 0.4 1005253
09:00+14ese5993100 2.8 1003324
12:00+16se61286100 0.0 1002524
15:00+19se4874100 0.3 1000631
18:00+16wnw3688100 1.0 999148
21:00+14wnw3794100 1.1 1000180
28 september, wed
wed2800:00+12wnw489430 0.0 1001212
03:00+10wnw499548 0.0 1001250
06:00+9wnw36962 0.0 1002136
09:00+12wnw36845 0.0 1003266
12:00+17wnw346139 0.0 1004765
15:00+20w345089 0.0 10041437
18:00+18w22588 0.0 100516
21:00+15nne227014 0.0 100615
29 september, thu
thu2900:00+13ene227741 0.0 100820
03:00+14e367248 0.0 1008146
06:00+13ese3577100 0.0 100889
09:00+16se4976100 0.0 1008301
12:00+21sse6856100 0.1 1009922
15:00+24s7103697 0.1 10082208
18:00+21sse71254100 0.0 1008382
21:00+18sse61475100 1.1 1010480